When you browse on this site, cookies collect data to enhance your experience and personalize the content and advertising you see.
Visit our Privacy Policy to learn more. By continuing to use the site, you agree to this use of cookies and data.
  • In Hungary
  • List of Countries
  • For 7 days
  • Water Temperature
  • Satellite Maps
  • Weather Map
  • News
  • Weather Widgets
  • user-avatar
    Login

    Hourly Weather Nowy Sącz

    Today, 16 February, Saturday

    Time Temperature Precipitation Wind Pressure Humidity
    00:00 +2°C° 0 mm 1 mps 742 mmHg 87%
    01:00 +2°C° 0 mm 1 mps 742 mmHg 86%
    02:00 +2°C° 0 mm 1 mps 742 mmHg 85%
    03:00 +2°C° 0 mm 1 mps 742 mmHg 84%
    04:00 +2°C° 0 mm 1 mps 742 mmHg 84%
    05:00 +2°C° 0 mm 1 mps 742 mmHg 84%
    06:00 +2°C° 0 mm 1 mps 742 mmHg 84%
    07:00 +2°C° 0 mm 1 mps 742 mmHg 84%
    08:00 +4°C° 0 mm 1 mps 742 mmHg 79%
    09:00 +6°C° 0 mm 1 mps 742 mmHg 74%
    10:00 +8°C° 0 mm 1 mps 742 mmHg 69%
    11:00 +10°C° 0 mm 1 mps 742 mmHg 67%
    12:00 +11°C° 0 mm 1 mps 741 mmHg 65%
    13:00 +12°C° 0 mm 1 mps 741 mmHg 63%
    14:00 +11°C° 0 mm 1 mps 741 mmHg 67%
    15:00 +9°C° 0 mm 0 mps 741 mmHg 72%
    16:00 +8°C° 0 mm 0 mps 741 mmHg 77%
    17:00 +8°C° 0 mm 1 mps 741 mmHg 80%
    18:00 +7°C° 0 mm 1 mps 741 mmHg 83%
    19:00 +5°C° 0 mm 2 mps 741 mmHg 86%
    20:00 +4°C° 0 mm 2 mps 740 mmHg 86%
    21:00 +4°C° 0 mm 2 mps 740 mmHg 86%
    22:00 +4°C° 0 mm 2 mps 740 mmHg 86%
    23:00 +3°C° 0 mm 2 mps 740 mmHg 84%

    Tomorrow, 17 February, Sunday

    Time Temperature Precipitation Wind Pressure Humidity
    00:00 +3°C° 0 mm 2 mps 740 mmHg 82%
    01:00 +3°C° 0 mm 2 mps 740 mmHg 79%
    02:00 +3°C° 0 mm 2 mps 740 mmHg 78%
    03:00 +3°C° 0 mm 2 mps 740 mmHg 76%
    04:00 +2°C° 0 mm 2 mps 739 mmHg 74%
    05:00 +2°C° 0 mm 2 mps 739 mmHg 73%
    06:00 +2°C° 0 mm 2 mps 739 mmHg 71%
    07:00 +2°C° 0 mm 2 mps 739 mmHg 70%
    08:00 +4°C° 0 mm 2 mps 739 mmHg 66%
    09:00 +7°C° 0 mm 1 mps 740 mmHg 63%
    10:00 +9°C° 0 mm 1 mps 740 mmHg 59%
    11:00 +10°C° 0 mm 1 mps 740 mmHg 56%
    12:00 +12°C° 0 mm 1 mps 739 mmHg 53%
    13:00 +13°C° 0 mm 1 mps 739 mmHg 50%
    14:00 +12°C° 0 mm 1 mps 739 mmHg 56%
    15:00 +11°C° 0 mm 1 mps 738 mmHg 62%
    16:00 +10°C° 0 mm 1 mps 738 mmHg 68%
    17:00 +8°C° 0 mm 1 mps 738 mmHg 71%
    18:00 +7°C° 0 mm 1 mps 738 mmHg 75%
    19:00 +6°C° 0 mm 1 mps 738 mmHg 79%
    20:00 +5°C° 0 mm 1 mps 738 mmHg 79%
    21:00 +5°C° 0 mm 1 mps 738 mmHg 79%
    22:00 +4°C° 0 mm 1 mps 738 mmHg 79%
    23:00 +4°C° 0 mm 1 mps 738 mmHg 78%

    Day after tomorrow, 18 February, Monday

    Time Temperature Precipitation Wind Pressure Humidity
    00:00 +4°C° 0 mm 1 mps 738 mmHg 76%
    01:00 +4°C° 0 mm 1 mps 738 mmHg 75%
    02:00 +4°C° 0 mm 1 mps 738 mmHg 74%
    03:00 +3°C° 0 mm 1 mps 738 mmHg 72%
    04:00 +3°C° 0 mm 1 mps 737 mmHg 71%
    05:00 +3°C° 0 mm 1 mps 737 mmHg 69%
    06:00 +3°C° 0 mm 1 mps 737 mmHg 68%
    07:00 +3°C° 0 mm 1 mps 737 mmHg 67%
    08:00 +5°C° 0 mm 1 mps 738 mmHg 63%
    09:00 +7°C° 0 mm 1 mps 738 mmHg 58%
    10:00 +9°C° 0 mm 1 mps 738 mmHg 54%
    11:00 +10°C° 0 mm 1 mps 738 mmHg 52%
    12:00 +11°C° 0 mm 1 mps 738 mmHg 51%
    13:00 +12°C° 0 mm 1 mps 737 mmHg 49%
    14:00 +11°C° 0 mm 1 mps 737 mmHg 55%
    15:00 +10°C° 0 mm 1 mps 737 mmHg 61%
    16:00 +9°C° 0 mm 1 mps 737 mmHg 67%
    17:00 +8°C° 0 mm 1 mps 737 mmHg 72%
    18:00 +7°C° 0 mm 1 mps 736 mmHg 76%
    19:00 +5°C° 0 mm 1 mps 736 mmHg 81%
    20:00 +5°C° 0 mm 1 mps 736 mmHg 80%
    21:00 +3°C° 0 mm 2 mps 736 mmHg 80%
    22:00 +3°C° 0 mm 2 mps 736 mmHg 80%
    23:00 +3°C° 0 mm 2 mps 736 mmHg 79%

    19 February, Tuesday

    Time Temperature Precipitation Wind Pressure Humidity
    00:00 +3°C° 0 mm 2 mps 736 mmHg 78%
    01:00 +2°C° 0 mm 2 mps 736 mmHg 76%
    02:00 +2°C° 0 mm 2 mps 736 mmHg 75%
    03:00 +2°C° 0 mm 2 mps 735 mmHg 74%
    04:00 +2°C° 0 mm 2 mps 735 mmHg 73%
    05:00 +2°C° 0 mm 2 mps 735 mmHg 73%
    06:00 +2°C° 0 mm 2 mps 735 mmHg 72%
    07:00 +1°C° 0 mm 2 mps 735 mmHg 72%
    08:00 +4°C° 0 mm 2 mps 735 mmHg 68%
    09:00 +6°C° 0 mm 2 mps 735 mmHg 64%
    10:00 +8°C° 0 mm 2 mps 735 mmHg 60%
    11:00 +9°C° 0 mm 2 mps 735 mmHg 57%
    12:00 +10°C° 0 mm 2 mps 734 mmHg 55%
    13:00 +12°C° 0 mm 2 mps 734 mmHg 52%
    14:00 +11°C° 0 mm 1 mps 734 mmHg 57%
    15:00 +11°C° 0 mm 1 mps 733 mmHg 62%
    16:00 +10°C° 0 mm 1 mps 733 mmHg 67%
    17:00 +9°C° 0 mm 1 mps 733 mmHg 72%
    18:00 +6°C° 0 mm 2 mps 733 mmHg 78%
    19:00 +4°C° 0 mm 2 mps 734 mmHg 83%
    20:00 +4°C° 0 mm 2 mps 734 mmHg 82%
    21:00 +4°C° 0 mm 2 mps 734 mmHg 81%
    22:00 +4°C° 0 mm 2 mps 734 mmHg 80%
    23:00 +4°C° 0 mm 2 mps 734 mmHg 81%

    20 February, Wednesday

    Time Temperature Precipitation Wind Pressure Humidity
    00:00 +3°C° 0 mm 2 mps 734 mmHg 81%
    01:00 +3°C° 0 mm 2 mps 734 mmHg 81%
    02:00 +4°C° 0 mm 2 mps 734 mmHg 83%
    03:00 +5°C° 0 mm 1 mps 734 mmHg 85%
    04:00 +5°C° 0 mm 1 mps 734 mmHg 87%
    05:00 +5°C° 0 mm 1 mps 735 mmHg 88%
    06:00 +4°C° 0 mm 1 mps 735 mmHg 90%
    07:00 +4°C° 0 mm 1 mps 735 mmHg 91%
    08:00 +4°C° 0 mm 2 mps 735 mmHg 82%
    09:00 +5°C° 0 mm 3 mps 735 mmHg 74%
    10:00 +8°C° 0 mm 3 mps 735 mmHg 65%
    11:00 +7°C° 0 mm 4 mps 735 mmHg 62%
    12:00 +7°C° 0 mm 4 mps 735 mmHg 60%
    13:00 +8°C° 0 mm 5 mps 735 mmHg 57%
    14:00 +7°C° 0 mm 4 mps 735 mmHg 59%
    15:00 +8°C° 0 mm 3 mps 735 mmHg 62%
    16:00 +7°C° 0 mm 3 mps 735 mmHg 64%
    17:00 +5°C° 0 mm 3 mps 735 mmHg 68%
    18:00 +5°C° 0 mm 3 mps 735 mmHg 72%
    19:00 +4°C° 0 mm 3 mps 735 mmHg 76%
    20:00 +4°C° 0 mm 2 mps 736 mmHg 78%
    21:00 +4°C° 0 mm 2 mps 736 mmHg 80%
    22:00 +3°C° 0 mm 2 mps 736 mmHg 82%
    23:00 +3°C° 0 mm 2 mps 736 mmHg 82%

    21 February, Thursday

    Time Temperature Precipitation Wind Pressure Humidity
    00:00 +3°C° 0 mm 2 mps 736 mmHg 83%
    01:00 +3°C° 0 mm 2 mps 736 mmHg 84%
    02:00 +3°C° 0 mm 2 mps 735 mmHg 83%
    03:00 +4°C° 0 mm 2 mps 735 mmHg 83%
    04:00 +4°C° 0 mm 2 mps 735 mmHg 82%
    05:00 +4°C° 0.1 mm 2 mps 735 mmHg 83%
    06:00 +4°C° 0.1 mm 2 mps 735 mmHg 83%
    07:00 +4°C° 0.1 mm 2 mps 735 mmHg 83%
    08:00 +5°C° 0.3 mm 2 mps 735 mmHg 82%
    09:00 +5°C° 0.3 mm 3 mps 735 mmHg 80%
    10:00 +7°C° 0.3 mm 3 mps 736 mmHg 78%
    11:00 +7°C° 0.1 mm 3 mps 736 mmHg 75%
    12:00 +7°C° 0.1 mm 4 mps 735 mmHg 71%
    13:00 +8°C° 0.1 mm 4 mps 735 mmHg 67%
    14:00 +8°C° 0 mm 4 mps 735 mmHg 69%
    15:00 +8°C° 0 mm 3 mps 735 mmHg 70%
    16:00 +8°C° 0 mm 3 mps 735 mmHg 72%
    17:00 +7°C° 0 mm 2 mps 736 mmHg 76%
    18:00 +7°C° 0 mm 2 mps 736 mmHg 81%
    19:00 +7°C° 0 mm 1 mps 736 mmHg 85%
    20:00 +7°C° 0.2 mm 1 mps 736 mmHg 87%
    21:00 +7°C° 0.2 mm 1 mps 736 mmHg 89%
    22:00 +7°C° 0.2 mm 1 mps 736 mmHg 91%
    23:00 +7°C° 0.3 mm 1 mps 736 mmHg 92%
    Show more